Torna al catalogo

SL-12 R/B(2)

AttivoHEO
NORAD 26629·ROCKET BODY·🇷🇺 Russia

Lanciato Nov 30, 2000 da Baikonur Cosmodrome

Loading…

Prossimi Passaggi (prossime 24 ore)

TLE

AggiornatoSource: Space-Track

Epoca: Sep 7, 2026, 23:25 UTC

1 26629U 00077D   26250.97592176 -.00000037  00000-0  00000-0 0  9991
2 26629  61.3058  71.3231 6720150 261.2895  23.2903  1.45597598136890

Traccia SL-12 R/B(2) in tempo reale con AllMySat

Download on the App Store